Theta_e
332 329 328 324 313 316 312 315 320 315 315 320 322 324 326 328 327 326 350 346 348 357 360 362 366 367 367 366 364 363 362 361 361 362 362 362 363 363 363 363 362 360 357 354 352 351 351 352 353
326 326 325 319 311 309 312 318 315 318 320 322 322 323 324 327 336 342 346 346 350 357 360 359 365 366 366 366 364 363 362 361 361 361 362 362 362 362 362 362 361 359 356 352 350 350 351 351 352
326 325 318 314 311 309 311 317 318 319 321 321 320 327 327 328 336 344 349 349 351 356 358 362 364 365 366 366 364 363 362 361 362 362 361 362 362 362 362 361 361 357 354 351 349 349 350 351 352
321 321 319 310 309 314 316 318 319 318 320 322 322 320 333 343 343 349 349 350 352 353 356 361 363 364 365 365 364 363 362 362 362 362 361 361 362 361 361 361 360 357 353 349 347 347 346 347 348
321 318 311 310 310 315 316 318 318 317 318 319 321 319 326 337 348 349 349 350 351 352 355 363 362 364 364 364 364 363 363 362 362 362 362 361 361 361 360 361 359 357 353 350 346 345 346 345 342
313 316 308 307 311 316 316 318 318 317 318 319 318 319 323 330 343 348 350 352 353 352 355 362 361 362 363 363 363 363 362 362 362 362 362 361 361 360 360 360 358 357 354 351 347 346 346 345 344
309 309 307 309 311 313 315 319 316 317 318 317 320 316 323 326 333 347 351 354 352 353 353 360 357 361 362 362 361 361 361 361 362 361 360 360 360 360 359 359 357 355 354 351 349 347 346 345 343
313 311 306 309 308 310 316 317 318 316 316 322 320 315 319 324 328 338 347 350 350 351 351 357 356 354 356 359 361 360 360 360 360 360 360 359 358 357 357 357 356 354 352 350 349 347 346 346 346
314 305 304 305 308 310 316 314 319 320 316 318 320 319 322 324 325 327 337 343 346 348 350 355 353 353 353 351 357 359 359 360 359 359 359 356 353 355 354 352 355 354 351 349 348 348 348 346 346
307 302 303 308 310 308 311 313 315 314 314 314 316 319 321 322 323 323 325 334 342 345 347 351 355 355 354 350 356 354 355 357 358 358 359 355 352 353 348 350 355 354 351 350 349 349 347 342 335
308 302 307 308 311 311 309 310 313 310 309 313 313 316 318 319 321 322 323 324 331 343 347 348 356 359 355 351 351 352 349 349 352 355 359 358 351 351 347 346 347 348 349 342 343 341 339 337 337
305 309 308 309 310 309 308 311 309 310 311 314 315 316 316 317 318 320 323 325 326 335 346 349 353 361 364 354 351 353 349 349 348 348 360 357 352 355 353 343 347 348 340 343 343 337 343 342 344
306 307 309 310 309 308 309 307 308 309 312 313 314 314 314 315 317 320 323 325 327 330 343 349 353 362 366 367 355 354 355 348 349 350 355 354 351 355 350 350 345 344 340 341 341 342 345 343 348
308 307 307 308 308 308 305 306 307 309 312 312 313 313 315 315 317 319 321 324 327 329 333 348 352 364 362 363 366 362 362 355 350 350 351 355 356 356 348 349 345 343 343 342 343 345 343 344 348
308 303 305 306 307 306 308 304 305 310 312 310 311 313 314 315 317 317 320 324 326 328 333 337 353 357 365 364 363 362 357 356 353 351 355 355 358 359 353 348 348 348 350 353 350 346 347 344 348
303 304 299 306 307 307 305 299 307 310 309 309 310 311 312 314 316 318 319 322 325 327 330 339 345 352 362 365 363 359 358 356 354 354 355 357 356 358 356 349 348 348 353 349 344 343 340 340 342
303 298 300 302 307 305 304 301 307 309 309 309 310 312 312 313 316 319 320 321 323 325 328 330 337 342 356 365 362 363 363 359 357 357 355 358 357 355 355 349 349 355 348 347 345 341 345 341 343
298 299 300 300 304 304 302 302 307 309 309 309 311 311 312 312 314 318 319 321 323 325 330 337 339 348 357 359 364 358 359 359 356 355 356 358 359 358 355 351 348 352 348 346 344 347 345 342 341
302 300 300 302 305 303 303 303 306 309 309 309 310 311 313 313 316 318 319 321 322 326 329 335 337 346 345 348 349 352 352 354 356 358 360 358 359 357 357 352 352 351 348 350 352 349 349 343 346
301 299 299 302 305 304 303 302 306 308 309 310 310 311 312 313 315 316 319 321 322 325 333 336 338 343 343 338 352 351 354 353 356 358 360 362 361 358 357 354 352 353 351 352 350 353 346 345 347
301 299 299 299 303 305 302 300 303 307 309 310 311 312 313 313 314 316 317 319 321 322 328 330 338 343 344 347 340 350 357 356 350 353 357 357 360 360 360 357 357 353 352 347 355 354 350 341 345
297 303 301 300 298 294 304 294 303 306 307 309 311 312 313 313 314 315 316 318 319 321 323 326 334 336 336 347 339 343 339 344 347 349 353 358 361 358 358 359 357 349 350 348 353 355 351 347 340
299 304 302 301 299 299 299 296 301 306 305 308 310 312 312 314 313 314 315 316 318 320 321 325 335 339 339 341 345 337 340 339 345 348 354 359 359 360 356 359 360 351 353 354 352 355 354 349 343
304 302 302 302 300 293 298 298 299 302 305 308 311 310 311 311 312 314 316 317 318 320 321 324 330 336 337 338 341 346 345 347 344 346 346 352 350 357 357 356 358 359 355 352 354 357 357 351 349
303 299 292 292 292 292 302 299 301 306 308 308 308 309 310 311 312 312 313 313 316 318 320 321 324 328 332 335 337 340 344 350 350 351 348 350 349 353 356 356 356 356 357 354 357 358 357 356 351
301 300 293 287 289 293 301 295 300 308 309 310 310 309 309 311 311 311 312 313 314 316 319 320 322 325 326 329 334 337 342 338 346 351 351 350 350 353 358 357 356 357 355 354 356 354 353 354 351
300 297 302 296 297 293 296 300 306 308 308 307 305 307 308 309 310 311 311 313 315 316 318 320 322 323 326 327 334 337 339 344 342 350 352 350 349 350 356 356 354 351 342 345 349 350 354 355 353
301 304 294 296 288 286 292 295 296 301 303 305 304 305 307 308 309 310 311 313 314 316 319 321 322 322 325 327 330 331 336 341 345 351 349 348 350 348 344 352 343 338 323 324 337 348 352 354 349
298 298 298 297 295 289 287 292 304 301 304 304 305 306 306 308 308 309 312 314 314 316 317 319 320 321 323 325 329 332 334 337 343 345 348 349 348 345 342 343 347 339 324 325 341 343 348 346 348
302 299 298 293 292 295 294 293 306 307 305 304 304 306 307 309 309 310 312 313 313 314 316 317 320 320 322 322 324 326 327 334 338 341 342 344 341 344 340 339 339 342 342 345 343 342 341 341 341
Wind_Speed
19 13 9 9 9 10 17 18 6 4 9 3 3 10 12 12 16 8 6 5 16 20 20 17 16 17 14 15 16 14 14 14 15 15 14 14 13 12 12 11 10 10 10 9 8 9 9 8 9
14 15 10 10 10 15 13 6 8 4 7 4 3 6 7 14 12 10 11 7 14 18 18 18 14 16 15 13 14 14 15 15 15 14 14 13 13 13 12 11 11 10 10 9 9 9 8 7 7
16 14 11 13 14 16 9 5 8 6 5 1 2 6 7 12 8 7 15 10 14 16 16 16 15 15 16 14 12 13 14 14 15 15 14 13 13 12 11 10 9 9 9 9 8 9 8 8 5
11 10 10 12 18 18 10 6 7 6 3 1 1 10 17 11 7 8 11 12 13 15 16 18 12 13 15 16 14 12 13 13 13 13 14 13 13 12 11 10 9 9 9 9 7 6 6 6 6
9 9 12 16 20 15 5 5 2 5 3 3 3 7 17 10 9 11 8 9 11 13 15 17 14 13 14 14 15 16 15 13 12 12 12 12 12 11 10 10 10 9 8 8 8 7 6 5 6
11 11 15 16 19 15 7 7 8 8 2 5 9 1 16 10 7 7 6 6 10 12 13 16 15 13 14 14 15 15 15 15 13 11 10 11 11 10 10 9 9 8 8 8 8 7 6 5 5
15 14 17 21 18 15 13 11 12 12 8 4 6 9 11 11 7 3 3 6 8 12 11 14 16 14 12 12 14 15 15 15 13 12 11 9 9 9 9 8 8 8 7 7 7 7 6 6 6
13 14 24 19 19 20 10 13 9 6 10 8 1 7 5 10 4 3 6 8 8 11 12 13 14 16 14 13 11 12 13 14 15 14 13 11 9 8 8 6 7 8 8 8 7 7 7 7 7
9 14 17 22 24 15 6 9 15 3 7 9 10 8 9 7 7 4 4 8 8 9 11 13 15 15 15 15 13 11 12 12 13 13 12 13 10 11 12 11 12 9 7 7 7 7 6 6 9
12 12 20 19 15 12 14 17 17 8 13 14 14 12 11 10 8 7 7 8 9 10 11 12 12 14 15 12 14 14 13 12 12 13 14 11 12 10 11 11 11 9 8 7 7 7 7 9 9
18 17 16 16 9 9 14 16 10 12 17 16 14 13 9 11 11 11 10 11 11 12 11 13 13 12 14 12 10 8 9 9 10 14 12 12 10 9 9 7 8 8 10 8 10 10 9 11 10
18 17 19 15 7 10 15 15 16 14 16 14 11 10 13 12 13 14 15 15 13 12 12 12 13 11 12 10 10 10 11 11 10 12 13 9 8 8 7 8 10 8 9 9 9 8 9 11 9
17 17 14 15 12 14 15 15 15 16 11 8 12 11 11 13 14 12 12 13 13 12 13 14 12 13 10 10 9 10 10 10 12 11 12 11 12 8 9 8 8 9 10 10 9 8 6 7 9
12 18 16 12 15 15 16 15 16 15 7 12 12 12 13 13 12 10 9 11 11 9 11 13 15 12 14 12 11 6 6 8 10 9 11 15 10 9 10 9 10 9 9 9 9 7 6 7 8
15 13 14 16 15 15 11 17 19 18 13 12 11 11 10 11 10 11 10 7 6 8 10 13 13 14 14 14 12 10 10 10 9 9 12 14 13 11 11 10 9 7 7 7 5 5 6 7 7
15 15 16 18 20 15 8 16 10 6 4 11 12 10 9 11 11 9 5 5 6 6 6 6 10 14 14 13 12 12 12 11 12 11 11 15 16 11 11 8 7 8 4 6 9 9 9 8 8
14 14 19 16 10 11 13 13 12 5 9 12 11 12 13 13 12 9 10 10 8 5 5 7 9 13 12 15 13 12 14 13 12 12 12 16 17 17 11 10 10 9 8 7 9 9 7 7 7
13 17 15 13 11 11 15 17 15 11 12 13 13 12 12 12 13 12 11 10 10 7 6 6 7 9 10 8 10 11 10 11 12 11 12 18 15 18 15 12 12 12 8 9 9 9 9 9 7
16 13 14 8 9 9 13 16 16 14 12 16 15 15 13 12 11 10 11 10 10 10 9 8 9 7 9 10 11 12 13 14 12 12 15 15 15 18 17 14 13 13 17 16 11 9 9 8 6
13 15 16 14 12 12 16 19 16 17 16 18 16 16 14 12 10 8 9 10 11 12 12 11 9 8 7 10 10 11 10 13 13 13 15 14 15 17 16 15 13 14 12 15 16 16 10 8 6
15 16 15 15 12 11 16 20 21 21 24 18 13 12 13 9 8 8 11 12 13 14 14 14 12 9 9 9 10 10 12 12 13 13 12 15 16 17 17 18 14 14 12 10 11 10 11 8 9
16 15 15 15 14 14 14 13 15 12 12 16 15 11 13 6 6 9 10 12 11 12 14 14 14 14 12 10 12 14 14 14 14 13 13 14 19 18 19 19 19 15 11 12 11 11 12 9 10
15 12 11 12 16 18 18 15 14 14 17 14 9 16 2 9 5 10 13 14 14 15 12 14 12 13 14 13 12 13 15 14 13 13 15 15 15 19 20 20 20 18 13 14 15 14 12 13 10
10 11 14 17 16 18 19 19 16 17 10 5 11 2 7 10 9 11 12 13 14 15 12 12 14 12 13 13 14 15 18 17 14 15 14 13 13 14 19 21 18 17 17 17 15 15 17 15 12
13 12 12 15 15 17 18 18 13 6 6 7 9 9 9 10 9 10 12 14 13 15 16 13 14 14 14 15 15 17 18 18 20 18 14 17 14 12 17 21 21 18 20 19 16 16 15 13 12
17 16 12 15 16 18 21 17 9 4 4 8 9 6 7 9 11 13 15 17 15 15 15 17 16 17 15 17 16 16 17 14 14 18 16 13 14 15 22 24 23 22 23 18 16 13 11 12 12
13 17 14 18 18 18 18 25 22 21 13 4 6 9 9 12 12 15 17 15 16 16 16 13 13 16 17 17 15 15 16 16 16 18 16 15 14 20 21 24 22 21 3 13 13 14 14 13 13
13 13 13 8 9 19 14 15 8 8 4 5 3 9 10 12 12 16 16 16 14 16 17 14 12 15 15 17 15 15 16 15 16 15 14 17 20 19 8 22 12 8 13 11 30 10 13 14 11
11 13 13 15 13 12 16 11 6 2 8 13 16 11 11 14 16 14 15 14 13 14 14 14 13 11 16 13 15 17 15 15 11 13 15 16 17 19 10 10 15 15 21 25 23 16 13 15 10
17 16 13 9 13 13 13 14 18 18 6 7 9 13 19 15 14 12 13 12 11 15 11 13 10 13 9 11 14 8 16 13 10 11 12 12 13 12 7 13 16 10 15 18 16 14 11 9 8
Wind_Direction
288 286 282 255 243 232 247 242 53 135 203 76 312 272 2 5 11 32 106 134 132 128 149 155 141 141 147 154 155 155 154 155 154 154 154 152 149 146 142 143 144 140 134 135 136 132 128 127 129
298 293 266 270 245 240 228 192 173 81 33 214 190 212 231 82 16 97 132 121 137 131 151 161 145 140 142 151 155 157 157 159 159 158 158 157 154 151 150 151 153 149 143 145 144 138 135 135 141
268 273 278 233 238 255 281 62 113 117 209 217 182 317 37 24 55 53 86 144 135 142 157 147 148 144 144 147 154 159 160 164 164 161 161 161 157 152 152 153 152 153 151 153 153 147 144 145 155
272 229 242 264 243 233 270 153 79 204 168 129 274 99 85 40 34 53 121 143 138 150 160 132 145 146 149 151 153 159 163 164 166 164 163 164 160 156 156 158 158 161 160 159 156 147 154 161 168
243 264 253 237 243 260 232 32 173 264 57 96 333 130 88 73 73 100 122 148 156 152 154 153 152 153 154 157 159 160 161 163 165 166 166 165 162 158 158 162 164 167 165 163 160 161 162 173 186
247 233 245 241 238 242 182 245 243 263 99 98 250 2 89 63 69 122 135 157 167 152 158 151 155 161 159 161 162 162 160 157 161 161 166 166 161 161 164 166 171 170 166 167 170 170 172 182 199
244 244 240 257 254 225 201 247 253 244 240 233 38 261 114 67 42 80 153 146 172 157 175 152 175 172 161 164 164 162 160 157 156 154 156 160 162 160 165 174 178 171 166 168 176 180 185 192 210
243 245 259 248 258 256 156 248 264 291 259 55 244 247 133 81 29 176 202 167 184 164 176 160 179 184 189 180 172 170 163 162 159 157 155 154 155 168 177 174 188 182 178 183 190 190 198 205 222
241 256 243 243 254 254 253 231 256 216 286 268 272 290 327 335 314 272 242 190 191 174 182 173 176 183 194 194 177 173 171 170 164 164 162 159 198 186 185 205 164 182 194 200 208 212 215 225 235
218 229 243 255 271 266 268 246 248 224 244 259 247 243 251 252 265 271 272 221 206 195 195 183 186 184 195 203 176 199 195 198 201 195 188 210 212 205 206 187 161 173 196 215 222 229 230 230 247
209 240 241 251 273 273 280 280 268 262 258 256 268 276 300 279 265 263 253 263 264 204 196 196 180 187 198 205 183 187 206 204 205 210 204 201 203 209 191 183 183 203 196 218 202 211 232 227 239
237 229 244 267 290 235 255 259 260 259 263 277 297 286 273 267 261 258 257 255 244 244 208 206 184 195 199 206 196 189 205 197 204 205 198 202 217 207 204 208 191 190 198 217 219 215 224 226 248
218 248 230 251 248 257 270 264 266 264 260 260 263 261 256 258 261 257 254 257 265 281 198 207 210 189 199 231 211 207 201 201 203 194 195 207 199 202 204 211 220 186 212 189 226 232 216 231 244
208 241 250 240 248 237 246 254 257 247 230 250 244 258 260 258 257 259 270 272 261 260 272 215 199 201 199 206 233 218 214 220 206 197 193 206 203 193 198 214 212 213 208 213 206 213 225 227 257
247 254 236 245 241 245 251 261 251 239 246 250 254 250 259 264 267 265 253 284 290 277 254 265 200 214 201 210 215 233 216 211 200 208 199 193 213 200 204 201 205 212 215 234 221 225 207 250 245
233 229 249 226 214 227 212 260 263 102 193 228 236 260 251 255 260 262 261 253 270 277 299 274 266 208 212 214 208 222 220 217 227 202 202 191 202 212 192 204 214 191 217 193 225 208 228 216 238
207 245 225 244 170 241 197 259 207 162 231 255 261 250 245 236 234 247 256 248 247 266 273 267 265 260 222 206 222 211 227 224 213 217 204 195 194 194 204 210 192 203 199 206 212 227 222 224 227
222 213 238 254 181 201 249 239 253 221 237 245 244 246 252 255 257 246 250 271 272 283 302 287 276 288 239 246 205 230 225 225 225 227 217 202 199 193 200 201 195 181 200 221 219 221 217 226 228
295 289 298 265 231 243 264 276 272 267 254 251 250 252 250 245 249 253 253 255 281 297 304 293 306 288 282 227 233 213 228 224 227 225 227 209 196 199 195 212 195 191 179 198 218 213 210 218 223
261 258 258 261 266 260 269 268 268 262 256 255 264 266 261 259 252 278 320 325 306 297 299 293 290 272 263 264 233 246 222 233 221 221 216 223 201 202 203 208 201 206 200 198 195 199 198 214 213
240 252 264 266 277 260 265 263 251 245 243 249 268 267 269 273 282 335 317 312 306 300 300 292 289 280 264 264 274 254 232 243 232 222 210 214 212 202 207 208 218 211 209 200 190 194 199 201 212
246 239 242 255 262 261 266 283 274 277 259 215 216 236 242 251 319 309 299 296 307 303 300 297 294 292 278 244 252 262 265 242 235 233 218 207 203 210 206 213 215 226 208 203 194 195 198 183 219
256 276 274 269 267 277 265 262 265 251 247 232 229 236 243 267 299 293 305 309 311 302 308 309 303 294 267 268 259 268 255 252 246 241 233 213 201 204 212 213 217 214 216 199 210 193 194 198 212
282 265 260 263 262 256 260 260 266 260 279 269 199 286 332 320 308 300 303 309 296 310 303 312 312 297 286 278 268 259 259 263 249 234 236 215 205 205 207 221 211 215 213 206 199 191 195 207 194
223 255 264 257 243 256 256 246 257 315 286 220 276 312 312 303 300 294 309 306 316 309 307 306 306 308 303 290 265 257 255 256 249 249 244 231 207 193 209 212 209 207 209 201 191 189 187 190 201
256 246 258 269 274 289 296 280 271 293 266 280 263 287 283 288 287 304 307 299 304 316 313 301 310 301 306 299 287 258 254 250 245 239 242 250 236 197 200 204 211 204 204 198 183 180 191 187 194
261 253 298 295 284 277 277 279 275 268 212 233 245 239 256 261 295 297 291 299 303 303 306 305 306 312 302 305 290 270 255 246 255 251 236 236 256 223 203 199 199 202 166 249 208 181 171 199 195
259 290 278 258 272 265 266 279 272 344 300 265 254 270 283 283 286 289 306 300 307 304 297 280 311 311 308 312 298 275 255 244 246 246 242 240 242 270 276 197 195 167 105 72 271 205 187 207 193
241 246 248 265 255 266 281 273 315 261 316 306 306 302 302 289 282 310 302 303 304 298 306 311 309 322 325 325 312 321 277 263 242 251 243 230 232 247 224 225 184 157 143 188 224 232 192 201 193
268 271 271 246 269 250 264 266 276 284 285 291 277 267 262 291 296 285 296 301 298 299 303 309 314 323 326 327 327 334 333 293 268 243 234 227 216 229 206 137 228 180 173 180 188 196 208 175 178